Terminal Aerodrome Forecast
Issued by NWS

Home | Current Version | Previous Version | Text Only | Print | Product List | Glossary On
Versions: 1 2 3 4 5 6 7 8 9 10 11 12 13 14 15 16 17 18 19 20 21 22 23 24 25 26 27 28 29 30 31 32 33 34 35 36 37 38 39 40 41 42 43 44 45 46 47 48 49 50
000
FTUS43 KLOT 282100 AAC
TAFGYY
TAF AMD
KGYY 282135Z 2822/2918 16014G21KT P6SM BKN020 BKN120
     FM290000 19011KT P6SM SCT015 BKN090
     FM290700 19007KT P6SM BKN200
     FM291400 20012G20KT P6SM BKN200=

USA.gov is the U.S. government's official web portal to all federal, state and local government web resources and services.